FENGYUN 1C DEB, 38812

Orbit data source: Space-Track

FENGYUN 1C DEB, 38812 is space debris in SSO originally from a launch on Mon, 10 May 1999 UTC launched from the Taiyaun Space Center, China (TSC). Fengyun 1C debris stems from the Chinese weather satellite Fengyun-1C, which was intentionally destroyed by a Chinese anti-satellite missile in 2007. This event dramatically increased the amount of space debris, with thousands of trackable fragments posing hazards to satellites and human spaceflight. The Fengyun 1C debris cloud has become a focal point in discussions about space sustainability and the need for international regulations to prevent the creation of new debris.

Loading next visibility...
Identifier
38812, 1999-025EVC
Orbit
SSO
Country
Flag of CNCN / PRC
Related business
Manufacturer
Unknown
Mission
Spacecraft
Bus & Motor
Unknown
Mass
Unknown
Launch date (UTC)
1999-05-10 (27 years ago)
Launch vehicle
Unknown
Launch site
Taiyaun Space Center, China (TSC)
Object type
Payload
Rocket body
Debris
Shape & HBR
Unknown shape, 0.1 m
Radar Cross Section
Small (<0.1 m²)

Expand to show TLE details & history
Last TLE update: 1 month ago

TLE from 1 month ago
0 FENGYUN 1C DEB
1 38812U 99025EVC 26224.27253131  .00000726  00000-0  70511-3 0  9999
2 38812  98.4197  40.9225 0258960 101.7907 261.2411 13.68206120495014
Epoch: 2026-08-12T06:32Z
TLE epoch observation values (Epoch: 2026-08-12T06:32:26.705Z)
Latitude
-0.00007°
Longitude
-17.9176°
Altitude
1,042.805 km
Speed
7.314 km/s
True Right ascension
02h 43m 41s
True Declination
0° 00' 00"
Sunlit
Object was in daylight at epoch
Visualization orbit readout
Latitude
Unknown
Longitude
Unknown
Altitude
Unknown
Speed
Unknown
Apparent Right ascension
Unknown
Apparent Declination
Unknown
Sunlit
N/A
Visualization observer readout
Local Sidereal Time
06:15:49
Azimuth
Unknown
Elevation
Unknown
Doppler factor
Unknown
Orbital elements
Apogee altitude
1,194.378 km
Perigee altitude
812.083 km
Semi-major axis
7,381.367 km
Eccentricity
0.0259
Inclination
98.4197°
RAAN
40.9225°
Arg. of periapsis
101.7907°
True anomaly
258.32389°
Mean anomaly
261.2411°
Eccentric anomaly
259.78091°
Mean motion
3.42246 °/min
Orbital period
105.19 mins
BSTAR
0.00070511
Loading maneuver chart data...
Computing Atmospheric mass density...
Loading historical data...
Loading historical data...
Loading historical data...
Loading historical data...
Loading historical data...
Loading historical data...
Loading historical data...

Documentation

Showing up to 5 results
|